リニア彗星

C/2002 K2 ( LINEAR )

English version
Home page
Updated on June 11, 2016

---------------------------------------------------------------------

・ プロフィール

発見日 2002年5月16日
発見光度 18.2等
発見者 Lincoln Laboratory Near-Earth Asteroid Research project

・ 軌道要素

Epoch 2002 Jan. 6.0 TT = JDT 2452280.5
T 2002 Jan. 5.96475 TT                                  MPC
q   5.2351762            (2000.0)            P               Q
z  +0.0012460      Peri.   26.67895     +0.10398368     -0.71865863
 +/-0.0000088      Node   294.55612     -0.99273833     -0.11703526
e   0.9934768      Incl.  130.89478     -0.06048147     +0.68544330

・ 星図

・ 光度変化

        m1 = 8.0 + 5 logΔ + 10.0 log r

---------------------------------------------------------------------

軌道要素は Dr. Brian G. Marsden の計算によるもので、 M.P.E.C. 2003-K06 に掲載されたものです。
星図は StellaNavigator Ver.2.0 for Windows (アストロアーツ 編著 / アスキー出版局刊) で作成したものです。
光度グラフはComet for Windowsで作成したものです。

---------------------------------------------------------------------

Copyright(C) Seiichi Yoshida (comet@aerith.net). All rights reserved.